DL6KL Weather Reports


Display with metric or nautical units.
time (UTC)temp
F
wind
direction
speed
MPH
gust
MPH
rain 1hr
in
rain 24hr
in
rain mn
in
humidity
%
barometer
mb
20190426142212 65 248 4.0 4.0 0.00 0.04 0.04 42 1023.0
20190426141710 65 22 2.0 4.0 0.00 0.04 0.04 42 1023.0
20190426141211 65 22 3.0 6.0 0.00 0.04 0.04 43 1023.0
20190426140712 65 225 3.0 6.0 0.00 0.04 0.04 43 1023.0
20190426140212 65 68 2.0 6.0 0.00 0.04 0.04 43 1023.0
20190426135710 64 292 2.0 6.0 0.00 0.04 0.04 44 1023.0
20190426135210 64 292 2.0 6.0 0.00 0.04 0.04 44 1023.0
20190426134712 64 225 1.0 6.0 0.00 0.04 0.04 45 1023.0
20190426134211 64 180 2.0 5.0 0.00 0.04 0.04 45 1023.0
20190426133710 64 45 2.0 5.0 0.00 0.04 0.04 45 1023.0
20190426133210 64 270 2.0 7.0 0.00 0.04 0.04 46 1023.0
20190426132710 64 248 3.0 7.0 0.00 0.04 0.04 46 1023.0
20190426132211 64 270 2.0 10.0 0.00 0.04 0.04 46 1023.0
20190426131710 63 90 2.0 10.0 0.00 0.04 0.04 47 1023.0
20190426131211 63 270 3.0 10.0 0.00 0.04 0.04 47 1023.0
20190426130712 63 292 2.0 10.0 0.00 0.04 0.04 46 1023.0
20190426130211 63 248 4.0 10.0 0.00 0.04 0.04 46 1023.0
20190426125709 63 202 2.0 10.0 0.00 0.04 0.04 47 1022.0
20190426125210 63 292 3.0 7.0 0.00 0.04 0.04 47 1022.0
20190426124712 64 45 4.0 7.0 0.00 0.04 0.04 48 1022.0
20190426124212 63 225 4.0 8.0 0.00 0.04 0.04 49 1022.0
20190426123711 62 45 4.0 8.0 0.00 0.04 0.04 51 1022.0
20190426123210 63 248 3.0 5.0 0.00 0.04 0.04 50 1022.0
20190426122711 62 270 6.0 5.0 0.00 0.04 0.04 51 1022.0
20190426122211 62 338 2.0 3.0 0.00 0.04 0.04 51 1022.0
20190426121712 63 270 2.0 3.0 0.00 0.04 0.04 51 1022.0
20190426121211 64 0 2.0 3.0 0.00 0.04 0.04 53 1022.0
20190426120713 63 248 1.0 3.0 0.00 0.04 0.04 53 1022.0
20190426120211 62 202 1.0 5.0 0.00 0.04 0.04 54 1022.0
20190426115710 60 0 1.0 5.0 0.00 0.04 0.04 54 1023.0
20190426115210 60 0 2.0 5.0 0.00 0.04 0.04 54 1023.0
20190426114712 60 270 1.0 5.0 0.00 0.04 0.04 54 1023.0
20190426114211 60 45 3.0 5.0 0.00 0.04 0.04 55 1023.0
20190426113711 60 338 0.0 5.0 0.00 0.04 0.04 56 1023.0
20190426113211 60 315 1.0 6.0 0.00 0.04 0.04 56 1023.0
20190426112712 60 315 3.0 6.0 0.00 0.04 0.04 56 1022.0
20190426112211 60 0 3.0 5.0 0.00 0.04 0.04 57 1022.0
20190426111708 60 225 3.0 5.0 0.00 0.04 0.04 57 1022.0
20190426111210 60 68 1.0 5.0 0.00 0.04 0.04 58 1023.0
20190426110714 60 225 2.0 4.0 0.00 0.04 0.04 58 1023.0
20190426110213 60 180 1.0 4.0 0.00 0.04 0.04 60 1023.0
20190426105709 59 225 2.0 4.0 0.00 0.04 0.04 60 1022.0
20190426105212 58 292 1.0 4.0 0.00 0.04 0.04 61 1022.0
20190426104712 57 292 2.0 3.0 0.00 0.04 0.04 62 1022.0
20190426104214 56 292 1.0 3.0 0.00 0.04 0.04 61 1023.0
20190426103710 56 22 1.0 4.0 0.00 0.04 0.04 61 1023.0
20190426103213 55 202 0.0 4.0 0.00 0.04 0.04 61 1023.0
20190426102712 55 270 1.0 4.0 0.00 0.04 0.04 61 1023.0
20190426102216 55 270 2.0 4.0 0.00 0.04 0.04 61 1023.0
20190426101712 55 248 2.0 5.0 0.00 0.04 0.04 61 1023.0
20190426101209 55 225 3.0 5.0 0.00 0.04 0.04 61 1022.0
20190426100712 56 225 2.0 5.0 0.00 0.04 0.04 61 1022.0
20190426100211 56 225 2.0 5.0 0.00 0.04 0.04 61 1022.0
20190426095710 56 225 2.0 4.0 0.00 0.04 0.04 62 1022.0
20190426095210 56 248 2.0 4.0 0.00 0.04 0.04 62 1022.0
20190426094710 56 270 3.0 6.0 0.00 0.04 0.04 62 1022.0
20190426094211 56 270 4.0 6.0 0.00 0.04 0.04 63 1022.0
20190426093709 55 202 1.0 6.0 0.00 0.04 0.04 63 1022.0
20190426093210 55 202 1.0 6.0 0.00 0.04 0.04 63 1022.0
20190426092712 55 248 2.0 5.0 0.00 0.04 0.04 63 1022.0
20190426092211 55 158 2.0 5.0 0.00 0.04 0.04 63 1022.0
20190426091211 55 202 2.0 5.0 0.00 0.04 0.04 65 1022.0
20190426090711 54 225 2.0 4.0 0.00 0.04 0.04 65 1022.0
20190426090210 54 225 3.0 4.0 0.00 0.04 0.04 65 1022.0
20190426085709 54 225 2.0 4.0 0.00 0.04 0.04 65 1022.0
20190426085209 54 225 1.0 4.0 0.00 0.04 0.04 66 1022.0
20190426084711 54 180 2.0 5.0 0.00 0.04 0.04 66 1022.0
20190426084211 54 180 2.0 5.0 0.00 0.04 0.04 66 1021.0
20190426083710 54 202 3.0 6.0 0.00 0.04 0.04 67 1021.0
20190426083210 54 248 1.0 6.0 0.00 0.04 0.04 67 1021.0
20190426082710 54 292 2.0 4.0 0.00 0.04 0.04 68 1022.0
20190426082211 54 292 2.0 4.0 0.00 0.04 0.04 69 1022.0
20190426081709 54 225 2.0 4.0 0.00 0.04 0.04 70 1022.0
20190426081210 54 202 2.0 4.0 0.00 0.04 0.04 71 1023.0
20190426080711 54 225 2.0 4.0 0.00 0.04 0.04 71 1023.0
20190426080212 54 202 1.0 4.0 0.00 0.04 0.04 71 1023.0
20190426075709 53 225 2.0 4.0 0.00 0.04 0.04 72 1023.0
20190426075210 53 225 2.0 4.0 0.00 0.04 0.04 72 1023.0
20190426074711 53 180 2.0 3.0 0.00 0.04 0.04 72 1023.0
20190426074211 53 158 2.0 3.0 0.00 0.04 0.04 73 1022.0
20190426073709 53 202 1.0 3.0 0.00 0.04 0.04 73 1022.0
20190426073211 52 225 1.0 3.0 0.00 0.04 0.04 73 1022.0
20190426072710 52 225 2.0 3.0 0.00 0.04 0.04 73 1021.0
20190426072211 52 225 1.0 3.0 0.00 0.04 0.04 73 1021.0
20190426071710 52 225 2.0 3.0 0.00 0.04 0.04 74 1021.0
20190426071211 52 248 2.0 3.0 0.00 0.04 0.04 74 1021.0
20190426070712 52 180 2.0 2.0 0.00 0.04 0.04 74 1021.0
20190426070211 52 292 1.0 2.0 0.00 0.04 0.04 74 1021.0
20190426065709 52 225 1.0 2.0 0.00 0.04 0.04 74 1021.0
20190426065209 52 225 1.0 2.0 0.00 0.04 0.04 74 1021.0
20190426064711 52 45 0.0 3.0 0.00 0.04 0.04 74 1021.0
20190426064211 52 225 0.0 3.0 0.00 0.04 0.04 74 1021.0
20190426063710 52 180 0.0 3.0 0.00 0.04 0.04 74 1021.0
20190426063211 52 68 1.0 3.0 0.00 0.04 0.04 74 1021.0
20190426062710 52 90 1.0 2.0 0.04 0.04 0.04 74 1020.0
20190426062211 52 112 0.0 2.0 0.04 0.04 0.04 74 1020.0
20190426061710 52 202 0.0 2.0 0.04 0.04 0.04 74 1020.0
20190426061211 52 202 0.0 2.0 0.04 0.04 0.04 74 1020.0
20190426060712 51 135 0.0 2.0 0.04 0.04 0.04 74 1020.0
20190426060211 51 202 1.0 2.0 0.04 0.04 0.04 74 1020.0
20190426055710 51 112 1.0 0.0 0.04 0.04 0.04 74 1020.0
20190426055211 51 112 0.0 0.0 0.04 0.04 0.04 74 1020.0
20190426054722 51 135 0.0 2.0 0.04 0.04 0.04 74 1020.0
20190426054211 51 202 0.0 2.0 0.04 0.04 0.04 74 1020.0
20190426053710 51 202 0.0 2.0 0.04 0.00 0.04 74 1020.0
20190426053212 51 90 0.0 2.0 0.04 0.00 0.00 74 1020.0
20190426052710 51 225 0.0 2.0 0.00 0.00 0.00 74 1020.0
20190426052211 50 248 1.0 2.0 0.00 0.00 0.00 73 1020.0
20190426051709 50 112 1.0 2.0 0.00 0.00 0.00 73 1020.0
20190426051210 50 112 0.0 2.0 0.00 0.00 0.00 73 1019.0
20190426050713 51 202 0.0 3.0 0.00 0.00 0.00 73 1019.0
20190426050214 50 180 0.0 3.0 0.00 0.00 0.00 72 1019.0
20190426045710 50 68 1.0 2.0 0.00 0.00 0.00 72 1019.0
20190426045212 50 68 2.0 2.0 0.00 0.00 0.00 71 1019.0
20190426044714 50 90 2.0 2.0 0.00 0.00 0.00 71 1019.0
20190426044212 50 112 1.0 2.0 0.00 0.00 0.00 71 1019.0
20190426043711 51 135 0.0 2.0 0.00 0.00 0.00 70 1019.0
20190426043213 51 180 0.0 1.0 0.00 0.00 0.00 70 1019.0
20190426042713 51 180 0.0 1.0 0.00 0.00 0.00 69 1021.0
20190426042214 51 180 1.0 1.0 0.00 0.00 0.00 69 1021.0
20190426041711 51 180 0.0 2.0 0.00 0.00 0.00 69 1021.0
20190426041211 51 180 0.0 2.0 0.00 0.00 0.00 68 1020.0
20190426040714 51 180 0.0 2.0 0.00 0.00 0.00 68 1020.0
20190426040212 51 180 0.0 2.0 0.00 0.00 0.00 68 1020.0
20190426035711 51 158 0.0 3.0 0.00 0.00 0.00 67 1020.0
20190426035211 51 202 1.0 3.0 0.00 0.00 0.00 67 1020.0
20190426034712 51 202 0.0 3.0 0.00 0.00 0.00 66 1020.0
20190426034212 51 202 2.0 3.0 0.00 0.00 0.00 66 1020.0
20190426033711 51 202 1.0 4.0 0.00 0.00 0.00 65 1020.0
20190426033211 51 225 2.0 4.0 0.00 0.00 0.00 64 1020.0
20190426032710 51 202 1.0 4.0 0.00 0.00 0.00 64 1019.0
20190426032211 51 180 0.0 4.0 0.00 0.00 0.00 63 1019.0
20190426031711 51 248 2.0 3.0 0.00 0.00 0.00 62 1019.0
20190426031210 52 158 1.0 3.0 0.00 0.00 0.00 62 1020.0
20190426030711 52 202 0.0 4.0 0.00 0.00 0.00 61 1020.0
20190426030211 52 292 1.0 4.0 0.00 0.00 0.00 61 1020.0
20190426025710 52 225 1.0 4.0 0.00 0.00 0.00 61 1020.0
20190426025210 52 202 2.0 4.0 0.00 0.00 0.00 60 1020.0
20190426024709 52 225 1.0 4.0 0.00 0.00 0.00 60 1020.0
20190426024209 52 202 2.0 4.0 0.00 0.00 0.00 60 1019.0
20190426023708 53 202 3.0 4.0 0.00 0.00 0.00 59 1019.0
20190426023210 53 202 2.0 4.0 0.00 0.00 0.00 59 1019.0
20190426022711 53 202 2.0 4.0 0.00 0.00 0.00 59 1019.0
20190426022211 53 292 2.0 4.0 0.00 0.00 0.00 59 1019.0
20190426021710 53 202 2.0 4.0 0.00 0.00 0.00 59 1019.0
20190426021210 53 270 2.0 4.0 0.00 0.00 0.00 58 1019.0
20190426020712 53 158 0.0 4.0 0.00 0.00 0.00 58 1019.0
20190426020212 53 292 3.0 4.0 0.00 0.00 0.00 58 1019.0
20190426015709 53 225 2.0 4.0 0.00 0.00 0.00 58 1019.0
20190426015211 53 225 1.0 4.0 0.00 0.00 0.00 58 1019.0
20190426014710 53 225 2.0 4.0 0.00 0.00 0.00 58 1019.0
20190426014210 53 202 2.0 3.0 0.00 0.00 0.00 57 1019.0
20190426013710 53 225 2.0 3.0 0.00 0.00 0.00 57 1019.0
20190426013211 53 225 2.0 4.0 0.00 0.00 0.00 57 1019.0
20190426012712 53 270 2.0 4.0 0.00 0.00 0.00 57 1017.9
20190426012211 53 202 2.0 3.0 0.00 0.00 0.00 56 1017.9
20190426011710 53 202 3.0 3.0 0.00 0.00 0.00 56 1017.9
20190426011211 53 225 2.0 3.0 0.00 0.00 0.00 56 1017.9
20190426010712 53 0 1.0 3.0 0.00 0.00 0.00 55 1017.9
20190426010211 53 225 1.0 2.0 0.00 0.00 0.00 55 1017.9
20190426005709 53 225 0.0 2.0 0.00 0.00 0.00 55 1017.9
20190426005210 53 202 0.0 2.0 0.00 0.00 0.00 54 1017.9
20190426004712 53 225 2.0 2.0 0.00 0.00 0.00 54 1017.9
20190426004211 53 202 1.0 3.0 0.00 0.00 0.00 54 1016.9
20190426003711 53 225 1.0 3.0 0.00 0.00 0.00 54 1016.9
20190426003211 53 22 0.0 4.0 0.00 0.00 0.00 53 1016.9
20190426002710 53 22 0.0 4.0 0.00 0.00 0.00 53 1017.9
20190426002212 53 225 1.0 3.0 0.00 0.00 0.00 53 1017.9
20190426001710 53 202 2.0 3.0 0.00 0.00 0.00 53 1017.9
20190426001212 53 202 0.0 3.0 0.00 0.00 0.00 53 1017.9
20190426000711 53 180 1.0 3.0 0.00 0.00 0.00 52 1017.9
20190426000217 54 225 0.0 3.0 0.00 0.00 0.00 52 1017.9
20190425235709 54 248 0.0 3.0 0.00 0.00 0.00 52 1017.9
20190425235210 54 202 0.0 3.0 0.00 0.00 0.00 52 1017.9
20190425234711 54 225 1.0 3.0 0.00 0.00 0.00 52 1017.9
20190425234211 54 248 1.0 3.0 0.00 0.00 0.00 52 1017.9
20190425233711 54 225 2.0 3.0 0.00 0.00 0.00 51 1017.9
20190425233211 55 202 1.0 3.0 0.00 0.00 0.00 51 1017.9
20190425232711 55 202 2.0 3.0 0.00 0.00 0.00 51 1017.9
20190425232212 55 202 0.0 2.0 0.00 0.00 0.00 51 1017.9
20190425231709 55 225 1.0 2.0 0.00 0.00 0.00 51 1017.9
20190425231210 55 202 1.0 2.0 0.00 0.00 0.00 51 1017.9
20190425230713 55 112 0.0 2.0 0.00 0.00 0.00 51 1017.9
20190425230214 55 112 0.0 2.0 0.00 0.00 0.00 51 1017.9
20190425225711 55 90 0.0 2.0 0.00 0.05 0.00 51 1017.9
20190425225213 55 225 0.0 2.0 0.00 0.05 0.00 51 1017.9
20190425224712 55 225 1.0 3.0 0.00 0.05 0.00 51 1017.9
20190425224212 55 158 0.0 3.0 0.00 0.05 0.00 51 1017.9
20190425223710 55 202 0.0 4.0 0.00 0.05 0.00 51 1017.9
20190425223212 55 22 2.0 4.0 0.00 0.05 0.00 51 1017.9
20190425222712 56 225 1.0 4.0 0.00 0.05 0.00 50 1017.9
20190425222214 56 202 1.0 4.0 0.00 0.05 0.00 50 1017.9
20190425221712 56 202 1.0 6.0 0.00 0.05 0.00 50 1017.9
20190425221211 56 202 2.0 6.0 0.00 0.05 0.00 50 1017.9
20190425220713 56 248 2.0 6.0 0.00 0.05 0.00 50 1017.9
20190425220211 56 202 2.0 6.0 0.00 0.05 0.05 50 1017.9
20190425215710 56 202 3.0 4.0 0.00 0.05 0.05 50 1017.9
20190425215210 56 135 3.0 4.0 0.00 0.05 0.05 50 1017.9
20190425214711 56 202 3.0 3.0 0.00 0.05 0.05 49 1017.9
20190425214210 56 225 0.0 3.0 0.00 0.05 0.05 49 1017.9
20190425213710 56 135 2.0 3.0 0.00 0.05 0.05 49 1017.9
20190425213210 56 225 1.0 3.0 0.00 0.05 0.05 48 1017.9
20190425212710 57 158 1.0 3.0 0.00 0.05 0.05 48 1017.9
20190425212210 57 270 2.0 3.0 0.00 0.05 0.05 48 1017.9
20190425211710 57 270 1.0 3.0 0.00 0.05 0.05 48 1017.9
20190425211211 57 202 2.0 3.0 0.00 0.05 0.05 48 1017.9
20190425210711 57 248 0.0 4.0 0.00 0.05 0.05 48 1017.9
20190425210211 57 225 1.0 4.0 0.00 0.05 0.05 47 1017.9
20190425205709 57 202 1.0 4.0 0.00 0.05 0.05 47 1017.9
20190425205210 57 225 2.0 4.0 0.00 0.05 0.05 47 1017.9
20190425204711 57 202 2.0 0.0 0.00 0.05 0.05 47 1017.9
20190425204211 57 180 0.0 0.0 0.00 0.05 0.05 47 1017.9
20190425203709 57 180 0.0 0.0 0.00 0.05 0.05 47 1017.9
20190425203210 58 225 0.0 0.0 0.00 0.05 0.05 47 1017.9
20190425202712 58 202 0.0 0.0 0.00 0.05 0.05 47 1017.9
20190425202210 58 112 0.0 0.0 0.00 0.05 0.05 46 1017.9
20190425201710 58 112 0.0 0.0 0.00 0.05 0.05 46 1017.9
20190425201211 58 180 0.0 0.0 0.00 0.05 0.05 46 1017.9
20190425200712 58 180 0.0 0.0 0.00 0.05 0.05 46 1017.9
20190425200211 58 180 0.0 0.0 0.00 0.05 0.05 46 1017.9
20190425195709 58 135 0.0 6.0 0.00 0.09 0.05 45 1017.9
20190425195210 58 225 0.0 6.0 0.00 0.09 0.05 45 1017.9
20190425194711 58 202 0.0 6.0 0.00 0.09 0.05 45 1017.9
20190425194212 58 180 0.0 6.0 0.00 0.09 0.05 45 1017.9
20190425193710 58 248 3.0 6.0 0.00 0.09 0.05 45 1017.9
20190425193211 58 158 2.0 6.0 0.00 0.09 0.05 44 1017.9
20190425192710 58 338 2.0 6.0 0.00 0.09 0.05 44 1017.9
20190425192210 58 292 2.0 6.0 0.00 0.09 0.05 44 1017.9
20190425191710 59 248 2.0 6.0 0.00 0.13 0.05 44 1017.9
20190425191210 59 202 1.0 6.0 0.00 0.13 0.05 44 1017.9
20190425190711 59 225 3.0 13.0 0.00 0.17 0.05 44 1017.9
20190425190211 59 248 2.0 13.0 0.00 0.17 0.05 44 1017.9
20190425185709 59 158 4.0 6.0 0.00 0.17 0.05 44 1016.9
20190425185210 60 225 4.0 6.0 0.00 0.17 0.05 44 1016.9
20190425184711 60 225 3.0 6.0 0.00 0.21 0.05 44 1016.9
20190425184211 60 180 3.0 6.0 0.00 0.21 0.05 43 1016.9
20190425183710 60 202 5.0 8.0 0.00 0.21 0.05 42 1016.9
20190425183211 60 225 3.0 8.0 0.00 0.21 0.05 41 1016.9
20190425182710 60 180 3.0 11.0 0.00 0.25 0.05 40 1015.9
20190425182211 61 315 2.0 11.0 0.00 0.25 0.05 39 1015.9
20190425181710 61 180 4.0 11.0 0.00 0.25 0.05 39 1015.9
20190425181211 61 202 4.0 11.0 0.00 0.25 0.05 38 1014.9
20190425180712 62 225 3.0 12.0 0.00 0.25 0.05 37 1014.9
20190425180211 62 180 4.0 12.0 0.00 0.25 0.05 37 1014.9
20190425175710 62 270 7.0 12.0 0.00 0.25 0.05 36 1015.9
20190425175210 63 292 3.0 12.0 0.00 0.25 0.05 35 1015.9
20190425174712 63 292 9.0 9.0 0.00 0.25 0.05 34 1015.9
20190425174210 63 338 7.0 9.0 0.00 0.25 0.05 34 1015.9
20190425173709 64 270 6.0 10.0 0.00 0.25 0.05 34 1015.9
20190425173211 64 202 4.0 10.0 0.00 0.25 0.05 33 1015.9
20190425172710 64 248 3.0 10.0 0.00 0.25 0.05 33 1014.9
20190425172211 65 225 3.0 10.0 0.00 0.25 0.05 32 1014.9
20190425171710 65 225 4.0 12.0 0.00 0.30 0.05 32 1014.9
20190425171211 66 292 3.0 12.0 0.00 0.30 0.05 31 1015.9
20190425170713 66 270 7.0 12.0 0.00 0.33 0.05 31 1015.9
20190425170213 66 248 6.0 12.0 0.00 0.33 0.05 31 1015.9
20190425165710 66 292 2.0 13.0 0.00 0.38 0.05 31 1014.9
20190425165231 67 248 4.0 13.0 0.00 0.38 0.05 30 1014.9
20190425164712 67 202 4.0 7.0 0.00 0.63 0.05 30 1014.9
20190425164213 67 202 4.0 7.0 0.00 0.63 0.05 30 1013.9
20190425163708 68 270 4.0 7.0 0.00 0.63 0.05 29 1013.9
20190425163211 69 292 3.0 7.0 0.00 0.63 0.05 30 1013.9
20190425162711 70 292 5.0 6.0 0.00 0.63 0.05 30 1013.9
20190425162212 70 315 2.0 6.0 0.00 0.63 0.05 30 1013.9
20190425161711 70 315 3.0 4.0 0.00 0.63 0.05 30 1013.9
20190425161210 70 248 3.0 4.0 0.00 0.63 0.05 29 1013.9
20190425160712 70 112 3.0 3.0 0.00 0.63 0.05 29 1013.9
20190425160211 70 270 2.0 3.0 0.00 0.63 0.05 30 1013.9
20190425155711 71 225 2.0 4.0 0.00 0.63 0.05 30 1013.9
20190425155212 71 202 2.0 4.0 0.00 0.63 0.05 30 1013.9
20190425154711 71 270 2.0 4.0 0.00 0.63 0.05 30 1013.9
20190425154212 71 225 1.0 4.0 0.00 0.63 0.05 30 1012.9
20190425153710 71 225 2.0 5.0 0.00 0.63 0.05 29 1012.9
20190425153212 71 225 1.0 5.0 0.00 0.63 0.05 29 1012.9
20190425152713 71 225 2.0 6.0 0.00 0.63 0.05 29 1012.9
20190425152211 71 45 2.0 6.0 0.00 0.63 0.05 29 1012.9
20190425151709 71 68 2.0 6.0 0.00 0.63 0.05 29 1012.9
20190425151210 71 0 2.0 6.0 0.00 0.63 0.05 29 1013.9
20190425150714 71 292 4.0 9.0 0.00 0.63 0.05 29 1013.9
20190425150213 71 0 2.0 9.0 0.00 0.63 0.05 29 1013.9
20190425145710 72 68 2.0 6.0 0.00 0.63 0.05 29 1013.9
20190425145211 72 270 1.0 6.0 0.00 0.63 0.05 29 1013.9
20190425144713 72 22 3.0 6.0 0.00 0.63 0.05 29 1013.9
20190425144212 72 90 4.0 6.0 0.00 0.63 0.05 28 1013.9
20190425143711 72 90 2.0 6.0 0.00 0.63 0.05 29 1013.9
20190425143212 72 225 3.0 6.0 0.00 0.63 0.05 29 1013.9
20190425142711 72 225 4.0 6.0 0.00 0.63 0.05 29 1013.9